Change the Weather History Date:

Wednesday, February 20, 2013

  Actual Average Record
Temperature  
Mean Temperature 8 °F 25 °F  
Max Temperature 20 °F 35 °F 68 °F (1981)
Min Temperature -4 °F 16 °F -21 °F (1918)
Degree Days  
Heating Degree Days 57 40  
Month to date heating degree days 815 850  
Since 1 July heating degree days 5096 5217  
Cooling Degree Days 0 0  
Month to date cooling degree days 0 0  
Year to date cooling degree days 0 0  
Moisture  
Dew Point 0 °F    
Average Humidity 68    
Maximum Humidity 79    
Minimum Humidity 56    
Precipitation  
Precipitation 0.00 in 0.01 in 0.82 in (2011)
Month to date precipitation 1.07 0.24  
Year to date precipitation 1.29 0.46  
Snow  
Snow 0.00 in - 16.00 in (1953)
Month to date snowfall 11.1  
Since 1 July snowfall 24.3  
Snow Depth 6.00 in    
Sea Level Pressure  
Sea Level Pressure 30.40 in    
Wind  
Wind Speed 12 mph (ESE)    
Max Wind Speed 20 mph    
Max Gust Speed 23 mph    
Visibility 10 miles    
Events      
T = Trace of Precipitation, MM = Missing Value Source: NWS Daily Summary

Daily Weather History Graph

Daily Weather History Graph

Search for Another Location

Airport or City:

Trip Planner

Search our weather history database for the weather conditions in past years. The results will help you decide how hot, cold, wet, or windy it might be!

Date:

Astronomy

Feb. 20, 2013 Rise Set
Actual Time 7:22 AM CST 6:09 PM CST
Civil Twilight 6:53 AM CST 6:38 PM CST
Nautical Twilight 6:20 AM CST 7:12 PM CST
Astronomical Twilight 5:47 AM CST 7:45 PM CST
Moon 1:26 PM CST (2/20) 3:50 AM CST (2/20)
Length of Visible Light 11h 44m
Length of Day
10h 46m
Waxing Gibbous, 76% of the Moon is Illuminated
Feb 20
Waxing Gibbous
Feb 25
Full
Mar 4
Last Quarter
Mar 11
New
Mar 19
First Quarter

Hourly Weather History & Observations

Time (CST) Temp. Windchill Dew Point Humidity Pressure Visibility Wind Dir Wind Speed Gust Speed Precip Events Conditions
12:53 AM -2.9 °F -16.5 °F -9.0 °F 75% 30.53 in 10.0 mi NW 6.9 mph - N/A   Clear
1:53 AM -2.0 °F -13.9 °F -8.0 °F 76% 30.50 in 10.0 mi North 5.8 mph - N/A   Clear
2:53 AM -2.9 °F -13.3 °F -9.0 °F 75% 30.50 in 10.0 mi NNE 4.6 mph - N/A   Clear
3:53 AM -4.0 °F -14.6 °F -9.9 °F 76% 30.49 in 10.0 mi ENE 4.6 mph - N/A   Clear
4:53 AM -4.0 °F -19.0 °F -9.9 °F 76% 30.47 in 10.0 mi East 8.1 mph - N/A   Clear
5:53 AM -2.0 °F -15.4 °F -8.0 °F 76% 30.45 in 10.0 mi ESE 6.9 mph - N/A   Clear
6:53 AM -0.9 °F -17.4 °F -8.0 °F 72% 30.44 in 10.0 mi ESE 10.4 mph - N/A   Clear
7:53 AM -0.0 °F -15.3 °F -7.1 °F 72% 30.45 in 10.0 mi ESE 9.2 mph - N/A   Clear
8:53 AM 1.9 °F -15.5 °F -6.0 °F 69% 30.46 in 10.0 mi SE 12.7 mph - N/A   Overcast
9:53 AM 3.9 °F -14.3 °F -4.0 °F 70% 30.45 in 10.0 mi SE 15.0 mph - N/A   Overcast
10:53 AM 6.1 °F -10.2 °F -2.0 °F 69% 30.44 in 10.0 mi SE 12.7 mph - N/A   Overcast
11:53 AM 8.1 °F -8.4 °F -0.0 °F 70% 30.45 in 10.0 mi SE 13.8 mph - N/A   Overcast
12:53 PM 10.9 °F -5.4 °F 1.9 °F 67% 30.42 in 10.0 mi SE 15.0 mph - N/A   Overcast
1:53 PM 14.0 °F -2.0 °F 3.9 °F 64% 30.37 in 10.0 mi SE 16.1 mph - N/A   Overcast
2:53 PM 16.0 °F -0.4 °F 5.0 °F 62% 30.34 in 10.0 mi SE 18.4 mph - N/A   Overcast
3:53 PM 18.0 °F 2.2 °F 6.1 °F 60% 30.33 in 10.0 mi SE 18.4 mph - N/A   Clear
4:53 PM 19.9 °F 5.2 °F 7.0 °F 57% 30.30 in 10.0 mi ESE 17.3 mph - N/A   Partly Cloudy
5:53 PM 19.0 °F 7.5 °F 8.1 °F 62% 30.29 in 10.0 mi SE 10.4 mph - N/A   Mostly Cloudy
7:53 PM 19.9 °F 7.9 °F 8.1 °F 60% 30.30 in 10.0 mi ESE 11.5 mph - N/A   Overcast
8:53 PM 19.9 °F 6.2 °F 9.0 °F 62% 30.30 in 10.0 mi SE 15.0 mph - N/A   Overcast
9:53 PM 19.9 °F 5.7 °F 9.0 °F 62% 30.30 in 10.0 mi ESE 16.1 mph - N/A   Overcast
10:53 PM 19.0 °F 5.6 °F 9.0 °F 65% 30.30 in 10.0 mi ESE 13.8 mph - N/A   Overcast
11:53 PM 19.0 °F 5.0 °F 8.1 °F 62% 30.30 in 10.0 mi SE 15.0 mph - N/A   Overcast